Location: Spangle
(47.4302°N, 117.3779°W)
Time: 01:19:32
(UTC+00:00)

Envisat - Pass Details

Date: 18 April 2026
Orbit: 761 x 762 km, 98.4° (Epoch: 19 May)

Event Time Altitude Azimuth Distance (km) Brightness Sun altitude
Rises 09:25:57 0° 26° (NNE) 3,236 7.5 -27.8°
Reaches altitude 10° 09:28:46 10° 41° (NE) 2,304 6.4 -27.6°
Maximum altitude 09:32:41 22° 92° (E) 1,615 4.9 -27.3°
Enters shadow 09:34:27 19° 120° (ESE) 1,774 4.8 -27.1°
